• In Uzbekistan
  • List of Countries
  • For 7 days
  • Water Temperature
  • Satellite Maps
  • Weather Map
  • Weather Widgets
  • user-avatar
    Login

    Hourly Weather Córdoba

    Today, 25 September, Tuesday

    Time Temperature Precipitation Wind Pressure Humidity
    00:00 +16°C° 0 mm 1 mps 724 mmHg 52%
    01:00 +15°C° 0 mm 1 mps 724 mmHg 54%
    02:00 +15°C° 0 mm 1 mps 724 mmHg 55%
    03:00 +15°C° 0 mm 1 mps 723 mmHg 57%
    04:00 +14°C° 0 mm 1 mps 723 mmHg 58%
    05:00 +14°C° 0 mm 1 mps 723 mmHg 60%
    06:00 +15°C° 0 mm 2 mps 723 mmHg 57%
    07:00 +16°C° 0 mm 2 mps 723 mmHg 55%
    08:00 +17°C° 0 mm 2 mps 723 mmHg 52%
    09:00 +19°C° 0 mm 2 mps 723 mmHg 49%
    10:00 +21°C° 0 mm 2 mps 723 mmHg 46%
    11:00 +24°C° 0 mm 2 mps 723 mmHg 43%
    12:00 +25°C° 0 mm 3 mps 722 mmHg 42%
    13:00 +26°C° 0 mm 3 mps 722 mmHg 41%
    14:00 +27°C° 0 mm 3 mps 721 mmHg 40%
    15:00 +27°C° 0 mm 3 mps 721 mmHg 43%
    16:00 +26°C° 0 mm 3 mps 720 mmHg 45%
    17:00 +26°C° 0 mm 3 mps 720 mmHg 47%
    18:00 +24°C° 0 mm 3 mps 720 mmHg 56%
    19:00 +23°C° 0 mm 2 mps 721 mmHg 65%
    20:00 +20°C° 0 mm 2 mps 721 mmHg 74%
    21:00 +19°C° 0 mm 2 mps 721 mmHg 78%
    22:00 +19°C° 0 mm 2 mps 722 mmHg 81%
    23:00 +19°C° 0 mm 1 mps 722 mmHg 84%

    Tomorrow, 26 September, Wednesday

    Time Temperature Precipitation Wind Pressure Humidity
    00:00 +19°C° 0 mm 1 mps 722 mmHg 87%
    01:00 +18°C° 0 mm 1 mps 721 mmHg 89%
    02:00 +18°C° 0 mm 1 mps 721 mmHg 92%
    03:00 +18°C° 0 mm 1 mps 721 mmHg 91%
    04:00 +16°C° 0 mm 1 mps 721 mmHg 91%
    05:00 +16°C° 0 mm 1 mps 721 mmHg 91%
    06:00 +18°C° 0 mm 1 mps 721 mmHg 88%
    07:00 +19°C° 0 mm 1 mps 721 mmHg 85%
    08:00 +20°C° 0 mm 1 mps 722 mmHg 82%
    09:00 +20°C° 0 mm 2 mps 722 mmHg 77%
    10:00 +21°C° 0 mm 2 mps 722 mmHg 72%
    11:00 +23°C° 0 mm 2 mps 723 mmHg 66%
    12:00 +24°C° 0 mm 3 mps 722 mmHg 64%
    13:00 +25°C° 0 mm 3 mps 722 mmHg 61%
    14:00 +26°C° 0 mm 4 mps 721 mmHg 58%
    15:00 +25°C° 0.1 mm 4 mps 721 mmHg 63%
    16:00 +23°C° 0.1 mm 4 mps 721 mmHg 68%
    17:00 +22°C° 0.1 mm 3 mps 721 mmHg 72%
    18:00 +21°C° 0.1 mm 3 mps 721 mmHg 77%
    19:00 +20°C° 0.1 mm 3 mps 722 mmHg 81%
    20:00 +20°C° 0.1 mm 2 mps 722 mmHg 86%
    21:00 +19°C° 0.1 mm 2 mps 723 mmHg 87%
    22:00 +19°C° 0.1 mm 2 mps 723 mmHg 88%
    23:00 +19°C° 0.1 mm 2 mps 723 mmHg 89%

    Day after tomorrow, 27 September, Thursday

    Time Temperature Precipitation Wind Pressure Humidity
    00:00 +19°C° 0.1 mm 2 mps 723 mmHg 90%
    01:00 +19°C° 0.1 mm 2 mps 723 mmHg 90%
    02:00 +18°C° 0.1 mm 2 mps 723 mmHg 91%
    03:00 +18°C° 0.1 mm 2 mps 722 mmHg 92%
    04:00 +18°C° 0.1 mm 2 mps 722 mmHg 93%
    05:00 +18°C° 0.1 mm 2 mps 722 mmHg 93%
    06:00 +18°C° 0.1 mm 2 mps 722 mmHg 92%
    07:00 +18°C° 0.1 mm 2 mps 723 mmHg 91%
    08:00 +18°C° 0.1 mm 2 mps 723 mmHg 89%
    09:00 +19°C° 0.1 mm 2 mps 723 mmHg 85%
    10:00 +20°C° 0.1 mm 3 mps 723 mmHg 81%
    11:00 +21°C° 0.1 mm 3 mps 724 mmHg 76%
    12:00 +22°C° 0 mm 3 mps 723 mmHg 72%
    13:00 +24°C° 0 mm 3 mps 723 mmHg 67%
    14:00 +25°C° 0 mm 3 mps 722 mmHg 63%
    15:00 +23°C° 0 mm 4 mps 722 mmHg 64%
    16:00 +23°C° 0 mm 4 mps 722 mmHg 66%
    17:00 +23°C° 0 mm 5 mps 721 mmHg 68%
    18:00 +21°C° 0 mm 4 mps 722 mmHg 75%
    19:00 +20°C° 0 mm 3 mps 722 mmHg 83%
    20:00 +18°C° 0 mm 2 mps 722 mmHg 90%
    21:00 +18°C° 0 mm 2 mps 723 mmHg 90%
    22:00 +18°C° 0 mm 2 mps 723 mmHg 90%
    23:00 +18°C° 0 mm 2 mps 724 mmHg 90%

    28 September, Friday

    Time Temperature Precipitation Wind Pressure Humidity
    00:00 +18°C° 0 mm 2 mps 723 mmHg 91%
    01:00 +18°C° 0 mm 2 mps 723 mmHg 91%
    02:00 +18°C° 0 mm 2 mps 722 mmHg 91%
    03:00 +17°C° 0 mm 2 mps 722 mmHg 91%
    04:00 +17°C° 0 mm 2 mps 722 mmHg 91%
    05:00 +17°C° 0 mm 2 mps 722 mmHg 91%
    06:00 +18°C° 0 mm 2 mps 722 mmHg 89%
    07:00 +18°C° 0 mm 2 mps 723 mmHg 87%
    08:00 +19°C° 0 mm 3 mps 723 mmHg 84%
    09:00 +21°C° 0 mm 3 mps 723 mmHg 76%
    10:00 +23°C° 0 mm 4 mps 723 mmHg 68%
    11:00 +26°C° 0 mm 5 mps 722 mmHg 60%
    12:00 +27°C° 0 mm 5 mps 722 mmHg 57%
    13:00 +28°C° 0 mm 5 mps 721 mmHg 53%
    14:00 +29°C° 0 mm 5 mps 720 mmHg 50%
    15:00 +28°C° 0 mm 5 mps 720 mmHg 51%
    16:00 +28°C° 0 mm 5 mps 719 mmHg 52%
    17:00 +28°C° 0 mm 5 mps 718 mmHg 52%
    18:00 +26°C° 0 mm 5 mps 719 mmHg 59%
    19:00 +25°C° 0 mm 4 mps 719 mmHg 65%
    20:00 +22°C° 0 mm 3 mps 719 mmHg 71%
    21:00 +22°C° 0 mm 3 mps 719 mmHg 73%
    22:00 +22°C° 0 mm 3 mps 718 mmHg 76%
    23:00 +21°C° 0 mm 3 mps 718 mmHg 79%

    29 September, Saturday

    Time Temperature Precipitation Wind Pressure Humidity
    00:00 +21°C° 0 mm 3 mps 717 mmHg 81%
    01:00 +21°C° 0 mm 4 mps 717 mmHg 84%
    02:00 +20°C° 0 mm 4 mps 716 mmHg 86%
    03:00 +20°C° 0 mm 4 mps 716 mmHg 87%
    04:00 +20°C° 0 mm 4 mps 716 mmHg 88%
    05:00 +20°C° 0 mm 4 mps 715 mmHg 89%
    06:00 +22°C° 0 mm 4 mps 716 mmHg 83%
    07:00 +23°C° 0 mm 5 mps 716 mmHg 77%
    08:00 +26°C° 0 mm 6 mps 716 mmHg 71%
    09:00 +28°C° 0 mm 6 mps 716 mmHg 61%
    10:00 +32°C° 0 mm 6 mps 716 mmHg 52%
    11:00 +34°C° 0 mm 7 mps 715 mmHg 42%
    12:00 +35°C° 0 mm 7 mps 715 mmHg 36%
    13:00 +38°C° 0 mm 7 mps 714 mmHg 30%
    14:00 +39°C° 0 mm 8 mps 714 mmHg 24%
    15:00 +38°C° 0 mm 6 mps 713 mmHg 25%
    16:00 +37°C° 0 mm 5 mps 713 mmHg 26%
    17:00 +36°C° 0 mm 4 mps 712 mmHg 27%
    18:00 +34°C° 0 mm 4 mps 712 mmHg 34%
    19:00 +32°C° 0 mm 4 mps 713 mmHg 41%
    20:00 +29°C° 0 mm 3 mps 713 mmHg 48%
    21:00 +29°C° 0.9 mm 3 mps 713 mmHg 49%
    22:00 +28°C° 0.9 mm 3 mps 713 mmHg 50%
    23:00 +28°C° 0.9 mm 3 mps 714 mmHg 51%

    30 September, Sunday

    Time Temperature Precipitation Wind Pressure Humidity
    00:00 +27°C° 0 mm 3 mps 714 mmHg 52%
    01:00 +26°C° 0 mm 3 mps 713 mmHg 53%
    02:00 +25°C° 0 mm 3 mps 713 mmHg 55%
    03:00 +23°C° 0.1 mm 4 mps 713 mmHg 55%
    04:00 +21°C° 0.1 mm 5 mps 714 mmHg 55%
    05:00 +19°C° 0.1 mm 5 mps 714 mmHg 55%
    06:00 +19°C° 0 mm 6 mps 715 mmHg 52%
    07:00 +19°C° 0 mm 6 mps 716 mmHg 50%
    08:00 +18°C° 0 mm 7 mps 717 mmHg 47%
    09:00 +20°C° 0 mm 7 mps 717 mmHg 44%
    10:00 +22°C° 0 mm 7 mps 717 mmHg 40%
    11:00 +23°C° 0 mm 7 mps 717 mmHg 37%
    12:00 +23°C° 0 mm 7 mps 717 mmHg 37%
    13:00 +24°C° 0 mm 7 mps 717 mmHg 36%
    14:00 +24°C° 0 mm 8 mps 717 mmHg 36%
    15:00 +23°C° 0 mm 8 mps 717 mmHg 38%
    16:00 +22°C° 0 mm 7 mps 718 mmHg 39%
    17:00 +20°C° 0 mm 7 mps 718 mmHg 41%
    18:00 +18°C° 0 mm 7 mps 719 mmHg 43%
    19:00 +16°C° 0 mm 6 mps 720 mmHg 45%
    20:00 +15°C° 0 mm 5 mps 721 mmHg 47%
    21:00 +14°C° 0 mm 6 mps 721 mmHg 49%
    22:00 +13°C° 0 mm 6 mps 721 mmHg 50%
    23:00 +11°C° 0 mm 6 mps 722 mmHg 52%
    Show more